Find Starlink 35814

NORAD ID: 66576 Int'l Des: 2025-268 Owner: SPXS Country: US Constellation: starlink operational
LEOCIRCULAR

現在のビュー

3D地球を読み込み中...

Starlink 35814について

説明を読み込み中...

次回通過

Passes for default location (London). Set your location on the main map for personalized predictions.

高度履歴

Loading altitude history...

軌道要素

1 66576U 25268V 26150.65196412 .00022970 00000-0 84132-3 0 9992
2 66576 43.0048 244.2911 0002592 278.4681 81.5877 15.27591039 30492
Epoch: May 30, 2026 • Age: 27 hours

現在のステータス

高度 487.9 km
速度 7.62 km/s
衛星直下点 -25.97°S, 45.25°E
打ち上げ日 Nov 21, 2025
運用期間 0.5 years
タイプ internet

技術仕様

分類 Payload
質量 575.00 kg
乾燥質量 530.00 kg
総質量 575.00 kg
長さ 0.30 m
直径 4.10 m
スパン 29.00 m
形状 Box + pan
製造者 SPXS
バスタイプ Starlink V2MO
フェーズステータス In Orbit
所有者/国 SPXS/US

Most Searched